INS-1B (41954 NORAD) Tracking and Keplerian Element Data

This shows tracking and keplerian element data for the satellite.

Feedback or suggestion? Click here.




ElementValue
Catalog41954
NameINS-1B
Epoch Orbit9759
Epoch Day323.15948904
Epoch Year2018
RAAN25.7048
Inclination97.4289
Eccentricity0.0009861
Argument of Perigee160.2734
Mean Anonmoly199.8886
Mean Motion15.23410862
Decay Rate1.386E-05
L11 41954U 17008G 18323.15948904 .00001386 00000-0 61151-4 0 9992
L22 41954 97.4289 25.7048 0009861 160.2734 199.8886 15.23410862 97598

Live tracking and technical data element details for INS-1B (NORAD 41954). INS-1B can be tracked NOW for your location showing map with azimuth and elevation plus other details from your city location.

Track the satellite on the map from your city or location and see movement details for azimuth, elevation, latitude, longitude, range, height, and movement on the map or in text.







IsCatalogInMostPopularTable: catalog: 41954, numindb: 112
Update: records affected: 1



GetName: 41954 INS-1B

Hit Count: updated at: Mon, 19 Nov 2018 14:07:54 GMT